Temperature
9 7 7 8 9 9 9 9 9 10 10 10 9 9 9 10 10 10 10 10 10 10 11 10 11 11 11 11 11 11 11 11 11 11 11 11 11 10 10 10 10 10 10 10
7 8 9 9 10 10 9 9 9 9 10 10 9 9 9 9 9 10 10 10 10 10 10 10 10 10 10 11 10 10 10 10 10 10 10 10 10 10 10 10 10 9 9 9
8 8 9 10 9 9 9 9 9 9 9 9 9 9 10 10 10 10 10 11 11 10 10 10 10 10 10 10 10 10 10 10 10 10 10 10 10 10 10 9 9 9 9 9
7 8 9 9 8 9 9 9 9 9 8 8 9 8 9 9 9 9 9 10 10 10 10 10 10 10 10 10 10 10 10 10 10 9 9 9 9 9 9 9 9 9 9 9
7 8 8 8 9 9 9 9 9 9 8 8 8 7 8 9 9 9 9 10 10 10 10 10 10 10 10 10 10 9 9 9 9 9 9 9 9 9 9 9 9 9 8 8
8 8 8 8 9 9 9 8 8 6 6 8 8 7 8 7 9 9 9 10 10 10 10 10 10 10 10 9 9 9 9 9 9 9 9 9 9 9 8 8 8 8 8 8
7 8 8 9 9 8 8 7 7 7 7 7 8 8 7 8 9 9 9 10 10 10 10 10 10 9 9 9 9 9 9 9 8 8 8 8 8 8 8 8 8 8 8 8
6 6 7 8 8 8 8 8 7 8 8 7 7 7 8 9 9 10 10 10 10 10 10 10 10 9 9 9 9 8 8 8 8 8 8 8 8 8 8 8 8 8 7 7
6 6 8 8 8 9 8 7 7 6 7 7 7 7 8 9 9 9 9 9 10 10 10 10 9 9 9 9 9 8 8 8 8 8 8 8 8 7 7 7 7 7 7 7
7 6 7 8 8 8 8 7 6 6 8 8 8 8 7 8 8 8 8 9 9 9 9 9 9 9 9 8 8 8 8 8 8 7 7 7 7 7 7 7 7 7 7 6
7 6 7 7 7 8 8 8 6 5 6 7 8 8 8 8 8 7 8 9 9 9 9 9 9 9 8 8 8 8 8 8 7 7 7 7 7 7 7 6 6 6 6 6
7 5 5 7 7 8 8 8 6 6 6 6 6 7 8 8 8 8 9 9 9 9 9 9 9 8 8 8 8 7 7 7 7 7 7 7 7 6 6 6 6 6 5 5
7 6 6 7 7 7 7 8 7 6 5 4 5 7 8 7 8 9 9 9 9 9 9 9 8 8 8 8 7 7 7 7 6 6 6 6 6 6 6 6 5 5 5 5
7 5 6 7 7 6 6 7 7 6 5 5 5 6 7 7 7 8 9 9 9 9 9 8 8 8 8 7 7 7 6 6 6 6 6 6 6 6 6 5 5 5 5 5
6 5 6 6 6 6 6 6 6 6 5 5 6 6 7 7 6 8 9 9 8 8 8 8 8 8 7 7 7 6 6 6 6 6 6 6 6 5 5 5 5 5 4 4
5 5 5 5 6 6 6 6 6 6 6 5 6 6 6 7 8 8 8 8 8 8 8 8 7 7 7 7 6 6 6 6 5 5 5 5 5 5 5 5 5 4 4 4
4 5 5 4 4 5 5 6 5 5 5 5 6 6 6 6 7 7 8 8 8 8 8 7 7 7 6 6 6 6 6 5 5 5 5 5 5 4 4 4 4 4 4 3
4 4 3 3 5 6 7 7 6 6 6 5 6 6 6 7 8 8 8 8 8 7 7 7 7 6 6 6 6 5 5 5 5 5 4 4 4 4 4 4 4 4 3 3
3 4 3 3 4 5 6 7 6 6 6 6 5 5 7 7 7 7 7 7 7 7 7 6 6 6 6 5 5 5 5 5 4 4 4 4 4 4 4 4 4 3 3 3
3 3 3 3 5 6 8 7 7 7 6 6 6 5 6 6 4 5 7 7 6 6 6 6 5 5 5 5 5 5 4 4 4 4 4 4 4 3 3 3 3 3 3 2
3 3 3 3 4 4 6 7 7 6 7 7 7 7 6 5 6 7 6 6 6 6 5 5 5 5 5 4 4 4 4 4 4 4 4 3 3 3 3 3 3 2 2 2
2 2 2 2 3 5 6 5 5 6 7 7 7 7 7 7 6 6 6 5 5 5 5 5 5 4 4 4 4 4 4 4 3 3 3 3 3 3 3 2 2 2 2 2
2 3 3 3 5 6 7 7 8 8 7 7 7 7 6 6 5 5 5 5 5 5 4 4 4 4 4 4 4 3 3 3 3 3 3 3 3 2 2 2 2 2 1 1
3 3 3 3 4 5 7 7 7 7 7 7 7 6 6 5 5 5 5 5 4 4 4 4 4 4 4 3 3 3 3 3 3 3 2 2 2 2 2 2 1 1 1 1
3 3 2 3 4 5 6 7 7 7 6 6 6 5 5 5 5 4 4 4 4 4 4 3 3 3 3 3 3 3 3 2 2 2 2 2 2 1 1 1 1 1 1 0
3 3 3 4 5 4 6 7 7 6 6 6 5 5 5 4 4 4 4 4 4 3 3 3 3 3 3 3 3 3 2 2 2 2 2 2 1 1 1 1 1 1 0 -0
Wind_Speed
3 5 2 1 2 3 4 4 3 0 0 2 2 3 4 4 5 6 6 6 6 6 5 5 5 5 4 3 3 2 2 1 2 2 1 1 1 2 2 3 5 6 6 6
6 4 3 2 1 4 5 6 3 2 2 2 1 3 4 4 6 7 8 8 8 6 4 4 4 4 4 3 2 2 2 1 0 1 1 1 1 0 0 2 3 5 6 6
5 2 3 4 5 5 4 4 3 2 2 3 2 4 3 3 3 4 6 6 6 8 8 7 6 5 4 3 4 3 2 1 1 0 1 1 2 2 2 2 2 2 4 4
5 5 4 6 5 4 2 1 2 3 3 1 2 2 5 3 3 4 6 6 7 6 7 6 6 5 5 5 4 3 2 2 1 1 1 2 2 1 2 1 1 2 3 3
3 4 5 5 3 2 1 1 3 3 3 2 2 2 6 2 4 6 6 7 7 7 7 7 7 7 6 4 3 3 2 2 1 1 2 2 2 2 1 1 1 1 2 2
2 2 2 1 2 2 2 5 6 5 4 1 2 3 5 4 6 4 4 5 6 6 6 6 5 4 4 3 3 2 2 2 2 2 2 3 3 3 2 2 1 1 1 1
6 5 5 3 4 6 6 5 4 5 3 4 2 2 7 6 4 5 5 6 5 5 5 5 5 4 4 5 4 3 3 3 3 3 3 3 4 4 4 4 3 2 1 1
3 3 5 4 2 0 1 4 5 4 4 4 3 4 6 4 2 1 2 3 4 4 4 5 6 6 6 6 5 4 4 4 3 3 4 3 3 3 3 3 3 3 3 3
3 2 4 2 1 1 2 2 4 5 1 1 4 5 5 1 2 2 2 2 3 4 4 5 5 5 5 5 5 5 5 5 4 4 4 4 3 3 4 3 3 3 3 2
4 1 3 3 2 2 2 4 4 4 3 2 5 4 4 5 4 3 2 3 4 3 3 4 4 4 4 5 5 4 5 6 5 5 4 4 4 4 4 3 4 4 3 3
3 3 2 2 1 2 1 2 3 3 3 4 3 6 5 6 5 5 5 4 4 4 4 4 4 4 4 3 4 4 4 4 4 4 4 4 4 4 4 4 4 4 3 3
2 4 1 3 3 2 3 3 5 3 2 3 3 7 5 4 4 4 4 4 4 4 3 3 3 2 3 3 3 4 4 4 5 5 4 4 4 4 4 5 5 4 4 4
2 4 2 4 3 2 2 3 4 4 3 4 4 7 3 0 2 3 4 4 4 4 3 2 2 3 3 4 4 4 4 5 4 4 4 4 4 4 5 5 5 4 4 4
3 2 5 6 5 3 4 5 5 5 4 5 8 7 5 4 4 4 5 5 4 4 4 3 3 4 4 4 4 4 5 4 4 3 4 5 6 6 6 6 5 5 5 5
4 2 3 5 5 4 7 8 7 9 9 8 8 7 9 7 7 6 5 4 4 4 4 4 4 4 4 4 4 4 4 4 4 4 4 6 6 5 5 5 5 5 5 5
2 2 1 4 4 4 7 10 10 10 9 10 9 10 8 5 3 3 4 4 5 5 5 5 4 4 5 5 5 5 5 5 4 4 6 5 4 4 5 5 5 5 5 5
2 3 1 4 5 6 8 9 11 7 7 8 11 9 4 3 4 4 4 4 5 5 5 5 5 5 5 6 5 5 5 4 4 5 5 5 4 5 5 5 5 6 6 5
5 4 2 2 3 6 6 2 7 7 6 8 6 5 4 5 4 3 3 4 4 4 4 4 4 5 5 4 5 5 4 4 4 5 5 5 5 5 5 4 6 6 5 5
4 6 3 2 3 8 8 4 5 6 5 6 7 5 3 2 1 3 3 3 4 4 4 5 5 5 4 5 4 4 4 4 4 5 6 5 5 5 5 6 6 6 5 6
3 4 4 3 4 6 5 2 2 4 4 4 6 5 4 4 1 5 4 2 3 4 4 4 4 3 4 5 3 3 5 5 6 6 6 6 5 6 6 7 6 5 5 6
4 3 5 6 6 9 7 3 4 4 6 4 5 5 5 6 6 4 3 4 4 4 4 4 3 3 5 5 3 4 5 6 7 6 6 5 5 6 6 6 5 5 5 5
9 8 8 6 7 9 5 7 7 7 2 4 4 4 5 5 4 4 4 4 4 4 4 3 3 5 5 4 3 5 7 7 6 5 6 6 6 5 5 5 5 4 5 5
9 10 7 10 10 5 5 7 5 4 4 4 4 4 4 4 5 4 4 4 5 5 5 4 4 5 5 4 4 6 7 6 5 5 6 6 6 5 5 5 5 4 4 5
6 5 6 7 9 7 6 5 4 4 5 5 5 5 4 5 5 5 5 4 4 4 4 4 4 5 6 6 5 7 7 5 5 6 6 6 5 5 5 4 5 5 5 6
7 7 6 7 7 4 5 7 6 5 4 4 4 5 6 6 6 5 5 5 5 4 4 4 5 6 8 7 7 7 6 5 5 6 6 6 5 5 5 5 6 7 7 8
7 9 8 9 8 7 7 7 6 6 7 6 6 5 5 5 6 5 5 5 4 5 5 5 6 7 7 7 8 7 6 5 5 6 6 5 5 5 5 5 6 9 10 13
Wind_Direction
40 64 66 237 193 171 142 121 113 231 150 101 160 209 235 206 189 193 195 194 193 199 199 175 161 150 138 130 122 118 94 46 60 59 61 51 26 10 27 40 47 41 35 33
48 33 310 299 43 91 99 103 91 43 35 91 148 267 253 220 208 201 200 203 200 198 187 179 170 160 157 157 164 166 154 132 89 139 183 187 187 216 54 28 41 42 37 30
93 318 338 63 57 80 58 126 151 143 27 47 68 322 277 254 216 203 202 200 195 192 191 188 183 183 176 184 193 193 190 185 213 197 113 78 62 31 15 2 359 18 34 33
47 355 39 59 40 71 69 343 115 109 90 322 102 253 281 261 242 215 212 200 198 193 184 184 182 185 193 205 197 192 192 196 224 189 161 161 175 210 232 251 307 348 17 22
31 7 39 48 3 46 155 40 62 74 95 46 29 143 286 295 244 239 223 210 204 197 186 186 189 193 198 198 192 197 191 203 217 198 192 183 196 211 227 239 308 331 348 5
32 354 40 9 335 33 82 50 47 43 64 12 249 165 276 250 231 231 214 206 198 189 182 186 192 185 193 192 194 196 193 215 218 208 205 201 209 214 219 237 244 267 288 328
9 358 357 14 31 20 57 75 46 15 11 256 282 192 253 265 252 210 200 201 195 183 177 183 186 190 198 200 204 202 203 226 228 220 223 220 216 211 217 227 224 230 248 265
69 332 333 6 64 62 38 122 146 178 214 277 317 238 262 299 319 136 160 168 171 182 192 201 203 202 205 207 205 203 212 226 230 229 238 236 223 214 226 226 217 221 229 237
132 259 302 326 340 105 107 106 158 132 156 275 281 283 306 2 27 69 114 140 186 206 211 214 214 211 210 211 211 209 214 225 232 235 237 239 231 224 230 233 225 228 233 234
143 148 297 312 16 8 129 139 92 109 143 259 294 272 248 243 235 225 202 207 226 230 229 226 217 216 218 219 219 217 217 222 230 233 234 238 234 231 230 223 229 231 234 228
129 134 314 354 214 218 129 124 111 118 154 163 255 271 233 215 211 208 219 223 221 225 231 230 225 225 226 226 223 226 229 230 237 237 236 241 241 234 226 222 229 228 228 223
91 121 228 269 274 239 195 182 148 150 213 178 199 267 279 215 203 191 210 224 223 224 228 231 229 235 241 243 241 237 236 235 239 235 232 238 241 234 231 234 234 227 225 224
101 117 62 345 328 327 250 212 166 138 135 171 194 260 298 193 214 215 213 222 227 227 225 230 237 246 250 252 250 244 241 241 243 235 236 243 242 237 239 240 235 227 224 226
112 143 183 206 222 202 231 237 195 154 180 215 226 246 272 247 238 251 245 233 230 236 231 231 243 251 253 251 249 248 250 245 241 233 237 245 245 240 240 239 233 229 222 222
113 194 240 253 260 240 237 237 214 204 202 208 235 233 248 241 232 237 240 237 237 247 247 242 243 250 257 260 258 252 253 251 239 236 246 250 251 245 243 241 237 231 224 226
128 185 303 298 288 262 259 243 227 224 221 231 251 264 253 246 217 228 237 233 238 248 248 249 251 255 259 259 258 256 255 252 238 240 250 256 255 250 244 242 238 232 231 229
166 161 193 277 315 336 273 236 204 206 209 200 228 243 245 235 229 231 235 233 237 248 249 250 253 255 260 261 256 252 252 250 242 246 256 258 253 252 250 244 238 234 232 227
158 144 165 279 347 252 249 229 182 197 230 212 220 235 224 229 222 217 209 211 241 251 252 255 254 259 264 263 264 260 257 251 248 251 255 257 255 256 256 248 242 238 230 228
156 153 166 192 262 278 287 243 174 184 254 220 212 224 221 178 83 290 245 211 226 240 247 246 248 252 261 268 268 270 269 262 261 260 259 257 252 255 256 251 248 240 229 233
99 124 156 188 231 247 251 204 162 122 265 230 185 194 191 140 213 262 252 249 258 264 256 254 263 267 271 274 272 269 272 270 266 263 261 258 250 249 252 253 250 239 230 236
147 171 196 208 237 264 253 195 128 172 243 199 180 188 183 194 216 238 263 266 264 270 270 270 273 271 271 277 272 267 272 267 264 266 267 264 255 249 250 252 245 239 235 237
178 179 194 184 212 253 213 149 184 215 207 175 185 193 201 220 240 254 265 269 275 280 281 275 271 278 280 277 270 274 274 271 273 270 269 268 263 257 254 249 249 238 229 236
199 195 190 197 215 245 190 200 217 182 185 197 197 211 205 221 240 251 259 267 271 269 272 271 268 283 289 280 260 267 274 280 281 277 273 272 269 261 252 244 245 242 231 234
237 192 191 236 255 250 236 234 230 203 203 206 200 204 205 226 241 253 262 268 276 276 274 273 279 285 288 285 274 263 273 278 276 276 277 275 271 268 259 247 237 233 232 236
221 186 208 243 260 273 251 225 220 220 217 215 215 213 217 224 239 243 255 266 269 276 274 267 267 271 277 283 282 278 275 273 273 274 275 275 268 265 264 256 243 239 234 229
202 196 200 231 221 208 231 224 210 208 217 217 217 222 224 217 231 243 252 256 262 270 275 274 272 272 278 283 283 282 273 262 262 273 274 271 271 268 263 268 278 256 247 254
Height
1504 1508 1512 1510 1508 1509 1510 1513 1516 1515 1513 1514 1516 1517 1516 1515 1516 1517 1518 1519 1520 1521 1523 1524 1525 1526 1527 1527 1528 1528 1528 1527 1527 1527 1527 1527 1526 1526 1526 1525 1524 1524 1523 1522
1510 1512 1510 1508 1507 1508 1510 1515 1518 1516 1514 1516 1518 1518 1515 1514 1514 1514 1516 1517 1518 1520 1521 1523 1524 1524 1525 1526 1526 1527 1526 1526 1526 1526 1525 1525 1525 1524 1524 1524 1523 1522 1521 1521
1513 1514 1509 1508 1510 1511 1514 1516 1517 1518 1517 1517 1520 1520 1516 1514 1513 1513 1514 1515 1516 1517 1519 1521 1522 1523 1524 1524 1525 1525 1525 1525 1524 1524 1524 1523 1523 1523 1522 1522 1521 1521 1520 1519
1515 1513 1511 1511 1513 1512 1517 1515 1515 1517 1522 1527 1524 1530 1518 1514 1513 1512 1512 1513 1514 1516 1517 1519 1520 1521 1522 1523 1523 1523 1523 1523 1523 1523 1522 1521 1521 1521 1521 1520 1519 1519 1518 1517
1518 1516 1515 1515 1516 1514 1516 1515 1516 1518 1523 1528 1527 1531 1524 1515 1514 1511 1511 1511 1513 1514 1516 1517 1518 1519 1521 1521 1522 1522 1521 1521 1521 1521 1520 1519 1519 1519 1518 1518 1517 1517 1516 1515
1518 1517 1516 1516 1515 1515 1515 1518 1520 1525 1529 1530 1527 1531 1525 1518 1511 1509 1509 1509 1510 1512 1514 1515 1517 1518 1519 1519 1520 1520 1519 1519 1519 1519 1518 1517 1516 1516 1516 1515 1515 1514 1514 1513
1523 1520 1518 1517 1517 1517 1519 1527 1536 1535 1539 1534 1528 1528 1525 1512 1508 1507 1507 1508 1509 1511 1513 1514 1515 1516 1517 1517 1518 1518 1517 1517 1517 1517 1516 1515 1514 1514 1513 1513 1512 1512 1511 1510
1528 1530 1522 1520 1520 1521 1521 1525 1535 1535 1537 1536 1528 1527 1519 1510 1508 1507 1507 1508 1509 1510 1512 1513 1514 1515 1515 1516 1516 1516 1515 1515 1515 1514 1514 1513 1512 1511 1511 1510 1510 1509 1508 1508
1528 1529 1523 1520 1520 1520 1521 1527 1527 1535 1535 1534 1530 1524 1515 1510 1509 1508 1508 1508 1509 1510 1511 1511 1512 1513 1513 1513 1513 1513 1513 1512 1512 1512 1511 1510 1509 1509 1508 1508 1507 1506 1506 1505
1524 1529 1524 1522 1520 1520 1521 1524 1531 1533 1533 1532 1528 1524 1521 1512 1510 1509 1508 1508 1508 1509 1509 1510 1510 1511 1511 1511 1511 1511 1510 1510 1509 1509 1508 1507 1506 1505 1505 1504 1504 1503 1503 1502
1522 1528 1527 1525 1523 1523 1523 1524 1527 1534 1534 1535 1532 1525 1510 1508 1507 1507 1507 1507 1507 1508 1508 1508 1509 1509 1509 1509 1508 1508 1507 1507 1506 1506 1505 1504 1503 1502 1502 1501 1500 1500 1499 1498
1523 1528 1531 1526 1522 1521 1521 1521 1526 1531 1532 1535 1536 1527 1505 1505 1504 1505 1505 1506 1506 1506 1507 1507 1507 1507 1506 1506 1505 1505 1504 1504 1503 1502 1501 1501 1500 1499 1498 1497 1497 1496 1495 1495
1522 1527 1532 1528 1528 1524 1521 1520 1522 1527 1532 1538 1536 1523 1505 1504 1504 1504 1504 1504 1505 1505 1505 1505 1505 1504 1504 1503 1502 1502 1501 1501 1500 1499 1498 1497 1496 1495 1494 1493 1493 1492 1491 1491
1521 1526 1529 1525 1521 1521 1521 1520 1520 1525 1532 1532 1526 1516 1507 1505 1504 1503 1503 1503 1503 1503 1503 1503 1503 1502 1501 1501 1500 1499 1498 1497 1496 1495 1494 1493 1492 1491 1490 1489 1488 1488 1487 1486
1521 1526 1523 1521 1519 1519 1518 1517 1517 1520 1521 1522 1515 1512 1504 1502 1502 1501 1501 1501 1501 1501 1501 1501 1500 1500 1499 1498 1497 1496 1495 1494 1492 1491 1490 1489 1488 1487 1485 1484 1484 1483 1482 1481
1521 1524 1523 1523 1517 1517 1516 1512 1512 1513 1513 1512 1510 1507 1499 1499 1499 1499 1499 1499 1499 1499 1499 1498 1498 1497 1496 1495 1493 1492 1491 1490 1489 1487 1486 1485 1483 1482 1481 1480 1479 1478 1477 1476
1522 1524 1525 1525 1521 1517 1513 1503 1504 1505 1503 1504 1505 1500 1497 1498 1497 1497 1497 1497 1496 1496 1496 1496 1495 1494 1493 1491 1490 1488 1487 1486 1485 1483 1482 1480 1479 1477 1476 1475 1474 1473 1472 1471
1521 1524 1528 1527 1522 1518 1500 1493 1495 1497 1496 1496 1495 1494 1494 1495 1495 1495 1495 1494 1494 1494 1493 1493 1492 1490 1489 1488 1486 1484 1483 1481 1480 1479 1477 1476 1474 1473 1472 1470 1469 1468 1467 1466
1517 1522 1527 1527 1524 1512 1497 1492 1492 1495 1493 1491 1491 1492 1492 1492 1493 1493 1492 1492 1492 1491 1491 1490 1488 1487 1485 1484 1482 1480 1479 1477 1476 1474 1473 1471 1470 1468 1467 1465 1464 1463 1462 1461
1518 1519 1525 1525 1519 1506 1491 1489 1488 1492 1492 1487 1487 1488 1489 1490 1494 1491 1489 1489 1489 1488 1487 1486 1484 1483 1481 1480 1478 1476 1475 1473 1471 1470 1468 1467 1465 1464 1462 1461 1459 1458 1456 1455
1520 1521 1522 1522 1518 1504 1490 1487 1489 1496 1489 1484 1484 1485 1486 1487 1488 1487 1486 1486 1485 1484 1483 1482 1480 1479 1477 1476 1474 1472 1471 1469 1467 1465 1464 1463 1461 1459 1457 1456 1454 1453 1451 1450
1512 1516 1517 1517 1516 1502 1484 1486 1488 1485 1482 1482 1482 1483 1484 1484 1484 1483 1483 1482 1481 1480 1479 1478 1476 1475 1474 1472 1470 1468 1466 1465 1463 1461 1459 1458 1456 1454 1452 1451 1449 1447 1446 1444
1501 1498 1498 1498 1491 1482 1480 1479 1479 1480 1480 1480 1480 1481 1481 1481 1480 1480 1479 1478 1477 1476 1475 1474 1472 1471 1469 1468 1466 1464 1462 1460 1458 1456 1454 1452 1450 1449 1447 1445 1443 1442 1440 1439
1491 1489 1491 1490 1481 1477 1477 1477 1477 1477 1477 1477 1478 1478 1478 1477 1477 1476 1475 1474 1473 1472 1471 1469 1468 1466 1465 1464 1462 1460 1458 1456 1453 1451 1449 1447 1445 1443 1441 1440 1438 1436 1434 1433
1482 1484 1484 1482 1476 1474 1473 1473 1473 1474 1474 1474 1474 1474 1474 1473 1472 1472 1471 1470 1469 1468 1467 1466 1464 1462 1461 1459 1457 1455 1453 1450 1448 1446 1443 1441 1439 1437 1435 1434 1432 1430 1429 1428
1474 1475 1477 1473 1468 1469 1468 1468 1469 1470 1470 1470 1470 1469 1469 1469 1468 1468 1467 1466 1465 1464 1463 1462 1460 1458 1457 1455 1452 1451 1448 1445 1443 1440 1438 1436 1433 1431 1429 1427 1426 1424 1423 1422